Showing default

RAVEN, 69016

AKA "RAVEN" on Space-Track | Orbit data source: Space-Track

RAVEN, 69016 is a German payload satellite in SSO that was launched on Sun, 03 May 2026 UTC via an FALCON 9 launch vehicle from the Air Force Western Test Range (AFWTR). Payload-class satellites include a variety of spacecraft equipped with specific instruments for various scientific and technological missions. These include communications satellites like Starlink; space stations such as the ISS; scientific satellites like the Hubble; Earth observation satellites from companies like Planet Labs, Umbra, and HawkEye 360; GPS; miniature CubeSats for education and research; and military/defense satellites.

Loading next visibility...
Identifier
69016, 2026-100AN
Orbit
SSO
Country
Flag of DEDE / GER
Related business
None
Manufacturer
Endurosat
Mission
Operational Amateur Science
Bus & Motor
CUBESAT 6U, Unknown motor
Mass
~8 kg wet, ~8 kg dry
Launch date (UTC)
2026-05-03 (4 months ago)
Launch vehicle
FALCON 9
Launch site
Air Force Western Test Range (AFWTR)
Object type
Payload
Rocket body
Debris
Shape & HBR
Box, 14.5 m
Radar Cross Section
0.080 m², Medium (>0.1 m² and < 1m²)

Expand to show TLE details & history
Last TLE update: 15 hours ago

TLE from 15 hours ago
0 RAVEN
1 69016U 26100AN  26237.70858033  .00002113  00000-0  96510-4 0  9997
2 69016  97.3934 134.4064 0008423 154.7917 205.3731 15.21652947 17384
Epoch: 2026-08-25T17:00Z
TLE epoch observation values (Epoch: 2026-08-25T17:00:21.340Z)
Latitude
-0.0001°
Longitude
-94.65455°
Altitude
509.185 km
Speed
7.606 km/s
True Right ascension
08h 57m 37s
True Declination
0° 00' 00"
Sunlit
Object was in daylight at epoch
Visualization orbit readout
Latitude
Unknown
Longitude
Unknown
Altitude
Unknown
Speed
Unknown
Apparent Right ascension
Unknown
Apparent Declination
Unknown
Sunlit
N/A
Visualization observer readout
Local Sidereal Time
23:17:32
Azimuth
Unknown
Elevation
Unknown
Doppler factor
Unknown
Orbital elements
Apogee altitude
503.609 km
Perigee altitude
492.026 km
Semi-major axis
6,875.954 km
Eccentricity
0.00084
Inclination
97.3934°
RAAN
134.4064°
Arg. of periapsis
154.7917°
True anomaly
205.33178°
Mean anomaly
205.3731°
Eccentric anomaly
205.35244°
Mean motion
3.80666 °/min
Orbital period
94.57 mins
BSTAR
0.00009651
Loading maneuver chart data...
Computing Atmospheric mass density...
Loading historical data...
Loading historical data...
Loading historical data...
Loading historical data...
Loading historical data...
Loading historical data...
Loading historical data...

Documentation

Showing up to 5 results
|